Dewpoint
24 26 28 29 28 28 32 32 33 34 35 40 41 41 43 45 49 49 47 49 50 49 54 65 65 66 65 64 63 62 59 55 54 53 52 53 55 57 57 57 56 54 54
28 32 33 33 31 30 30 32 33 33 34 41 43 43 44 46 49 52 51 48 48 51 53 57 63 65 65 64 63 61 58 55 54 52 51 49 52 55 56 56 56 55 55
33 32 33 35 36 36 34 33 34 35 34 37 42 45 46 49 50 51 51 51 49 50 52 55 59 63 64 63 62 61 57 55 54 53 52 47 46 51 53 55 55 55 55
32 34 36 38 38 37 38 38 37 36 35 36 40 43 44 45 48 50 51 51 50 49 51 53 56 58 62 64 62 61 59 56 53 54 53 54 51 50 46 53 54 54 54
35 37 38 39 39 39 39 41 39 36 36 35 40 42 43 44 45 46 47 49 48 49 51 52 54 58 62 62 62 60 58 57 54 53 52 54 55 54 50 45 51 53 54
38 39 40 41 41 40 40 42 41 37 36 36 40 42 43 42 43 46 46 47 50 49 50 52 54 57 59 61 62 61 58 56 55 53 53 51 51 52 52 49 49 50 52
38 40 41 41 42 43 45 45 43 39 37 36 39 43 44 43 43 44 48 47 50 49 49 51 53 55 59 62 61 61 59 58 56 54 52 53 52 52 53 51 51 52 55
39 40 43 43 43 45 41 35 38 37 38 36 38 42 44 44 45 44 47 47 48 49 49 51 52 52 56 59 61 61 60 59 57 55 54 53 53 54 55 53 51 52 53
39 40 45 44 45 45 35 35 39 37 35 34 39 40 43 44 45 46 48 48 48 48 49 50 50 52 52 54 59 59 58 57 55 54 54 53 54 55 56 55 53 50 49
38 40 46 45 47 47 39 37 39 39 36 34 37 40 42 44 46 46 47 49 49 49 49 50 51 51 51 52 55 59 58 58 57 56 55 54 54 56 57 56 56 54 50
38 39 42 44 47 49 46 39 39 40 40 39 41 40 42 44 45 48 47 48 49 50 50 50 51 50 50 54 54 56 58 57 57 57 56 56 55 55 57 58 57 56 54
37 38 39 41 42 48 48 46 43 40 40 40 41 43 44 45 47 49 50 50 50 50 50 50 50 49 52 53 55 55 57 57 57 57 57 56 56 56 56 57 57 56 55
37 37 38 39 40 41 43 44 48 49 49 48 48 48 48 49 50 50 51 51 51 51 51 51 52 52 53 53 53 54 55 57 56 57 57 57 57 57 57 57 57 57 55
36 36 36 37 39 40 41 41 42 45 50 51 50 49 49 49 50 50 51 51 52 52 51 51 52 53 54 55 54 54 55 56 57 57 57 58 57 57 57 57 57 57 56
35 35 36 37 37 38 39 40 41 42 43 43 43 43 44 47 51 49 49 50 50 50 51 52 53 54 54 55 55 55 56 56 56 56 56 57 57 57 57 57 57 57 57
34 35 35 35 36 36 37 38 39 40 41 41 41 41 43 44 49 51 52 52 52 53 54 55 54 53 54 54 55 56 56 57 57 56 56 57 56 56 57 57 58 58 57
33 34 34 34 34 34 34 35 36 38 38 39 39 39 41 42 46 50 50 50 50 49 47 49 54 48 50 56 56 57 58 57 57 57 57 57 57 57 57 56 56 56 56
33 33 32 31 30 31 32 32 33 33 34 35 36 38 39 39 41 42 43 43 43 43 43 43 44 44 44 49 55 56 58 57 57 57 57 57 55 56 56 56 55 55 55
33 33 31 26 23 25 28 28 29 30 30 31 32 35 36 36 38 39 40 41 41 40 40 41 41 41 42 43 45 47 47 46 46 46 46 47 47 47 48 52 54 54 54
34 33 29 22 23 24 24 24 26 28 29 28 27 30 31 31 32 35 37 38 39 39 39 38 39 39 39 41 42 42 42 42 43 43 44 44 44 44 45 46 47 49 51
34 32 25 23 24 24 23 24 27 28 29 28 27 28 28 28 28 29 31 32 34 35 35 35 35 35 36 37 38 39 39 40 40 40 41 41 42 42 43 44 44 45 47
34 32 24 23 24 25 25 25 27 28 27 27 27 27 27 28 27 27 26 26 26 27 27 29 30 30 30 32 33 34 35 36 37 37 38 39 41 41 41 42 43 43 44
33 31 25 23 23 24 24 25 27 27 26 26 25 25 25 25 26 25 25 26 26 25 25 26 27 27 28 29 31 31 32 33 32 33 35 37 38 38 39 39 40 41 42
33 31 26 23 22 23 23 25 26 27 25 24 23 23 23 22 24 25 24 25 25 25 25 25 26 26 27 28 28 28 28 30 30 31 31 32 32 32 33 33 34 36 38
33 30 26 24 23 23 22 25 26 26 24 24 23 22 22 22 21 22 25 24 26 27 26 25 25 25 25 26 28 28 28 28 29 29 28 28 28 29 31 32 33 34 36
33 30 27 24 24 23 22 24 26 26 24 23 23 23 20 21 20 19 18 24 26 26 25 25 25 25 26 26 26 26 27 27 27 25 25 25 27 27 27 28 30 31 33
Wind_Speed
19 20 23 24 25 25 27 28 27 27 24 22 22 22 23 22 22 22 25 24 20 22 24 16 24 23 22 24 23 24 24 19 16 15 14 15 14 15 14 13 13 15 14
26 30 31 27 24 27 27 26 27 27 26 22 21 21 22 22 22 21 22 22 22 22 22 25 23 24 22 23 23 24 17 18 21 18 17 13 14 16 17 15 15 16 14
34 34 30 28 26 27 26 27 27 26 27 26 20 19 19 19 21 22 21 21 24 24 24 24 23 21 22 20 25 25 25 23 21 17 11 9 11 13 16 21 18 17 16
33 32 30 30 27 26 24 26 26 27 26 26 25 28 24 23 23 23 22 21 25 24 22 22 24 23 22 19 24 21 25 25 23 20 21 7 6 9 10 14 22 20 20
33 34 31 29 27 25 25 24 24 26 27 25 28 26 26 23 21 21 25 25 24 26 24 22 22 23 20 23 18 23 24 26 25 26 25 18 8 6 8 15 16 19 20
30 31 30 26 25 21 21 22 24 27 26 26 27 29 28 24 21 21 22 21 21 21 24 23 22 22 22 22 24 25 27 26 25 25 25 26 21 18 14 14 13 18 17
30 30 30 23 19 16 17 19 22 27 26 26 27 29 29 27 26 25 22 21 20 20 21 23 22 21 22 18 24 25 28 30 29 27 27 24 26 19 19 13 11 7 6
32 32 30 21 18 18 17 17 20 23 24 26 26 25 27 23 23 25 21 22 21 21 21 22 21 22 24 22 15 24 26 26 28 30 27 24 23 23 18 18 14 7 7
33 33 29 17 16 16 14 12 13 17 19 23 23 25 24 26 23 23 22 20 21 19 22 21 21 21 22 25 17 18 17 19 24 25 21 22 20 21 19 15 16 17 13
34 33 20 17 16 15 12 8 11 14 13 17 19 22 24 25 23 22 23 22 21 21 21 21 20 20 20 23 23 21 22 23 22 21 22 19 19 18 15 15 14 18 19
30 28 27 27 22 15 12 10 8 11 13 15 17 20 22 25 25 23 24 23 22 22 23 22 22 23 23 21 24 24 23 25 23 22 23 26 26 23 18 17 20 22 20
28 28 28 29 30 23 16 10 8 9 10 13 16 17 18 18 21 23 23 23 24 24 23 23 24 23 24 25 22 23 22 24 24 24 25 29 24 26 24 22 22 23 20
30 28 27 26 26 26 23 24 18 7 5 8 10 13 16 18 21 21 21 21 21 22 22 22 21 23 23 24 27 27 26 23 25 26 25 25 26 25 21 23 22 20 21
26 27 28 26 26 26 25 24 23 20 12 5 8 9 13 17 19 20 20 21 21 22 22 23 24 25 25 25 24 26 26 26 26 28 28 26 26 26 25 24 25 21 21
26 27 26 25 26 27 26 24 24 22 19 18 17 15 13 11 17 22 20 19 21 22 23 22 23 23 22 23 25 28 28 28 28 29 29 28 29 30 30 25 25 24 22
21 21 23 24 26 26 27 25 25 23 21 21 20 18 16 14 7 16 19 18 17 17 17 20 22 23 23 25 29 29 26 23 25 27 26 26 27 29 31 29 24 22 22
17 18 20 20 20 22 22 23 22 20 22 22 23 22 20 20 20 14 15 13 10 14 12 10 8 7 6 28 30 25 17 16 18 22 22 22 19 24 22 25 26 25 27
16 16 17 19 21 20 20 20 21 22 23 23 24 25 24 25 23 28 22 24 20 20 20 19 17 26 27 18 13 20 10 9 7 9 13 15 14 16 16 17 20 24 24
12 14 15 17 18 20 20 18 19 21 23 24 24 24 25 26 25 28 23 23 19 23 18 21 23 32 32 34 29 22 18 16 17 17 19 16 14 16 13 9 17 19 20
9 12 15 17 19 21 19 19 20 21 23 22 22 22 20 22 24 22 21 18 17 19 18 24 27 29 28 34 33 23 15 18 15 14 14 20 16 15 14 9 8 11 12
7 9 9 12 15 17 16 17 18 21 19 18 19 20 21 20 20 19 18 17 17 17 20 21 22 24 27 26 30 28 19 16 14 13 13 12 17 14 13 12 8 9 14
6 7 8 10 11 14 15 16 17 15 16 17 19 20 20 19 17 19 19 20 18 19 19 18 18 18 20 26 26 25 23 20 12 13 11 11 16 16 15 12 13 15 15
5 5 6 8 9 11 12 12 13 13 13 13 15 16 17 19 19 21 21 18 19 19 18 18 17 17 17 18 22 21 20 18 13 12 12 14 13 14 12 15 18 17 12
6 3 5 6 7 8 9 10 11 12 13 14 15 15 16 16 17 16 16 18 18 17 16 16 16 14 16 17 17 17 15 15 14 13 11 12 13 12 12 13 13 12 13
7 5 4 3 4 6 9 10 12 12 11 12 13 14 14 16 14 15 18 16 19 18 15 15 13 14 15 16 17 16 14 14 14 9 10 11 13 14 15 15 14 12 11
10 9 8 6 3 2 5 8 9 8 7 6 8 10 11 11 11 10 10 18 18 19 19 20 18 12 17 19 22 22 19 20 17 13 15 17 17 17 17 18 18 16 17
Wind_Direction
289 292 289 281 268 253 246 244 246 244 239 232 227 227 228 225 223 222 221 220 218 221 220 214 217 209 195 196 194 202 202 196 195 195 205 218 223 221 222 223 223 220 222
294 297 298 287 269 262 252 244 242 240 237 232 224 223 223 222 220 218 220 221 219 217 221 221 220 212 204 195 193 193 193 199 191 188 192 213 219 226 225 225 224 224 218
303 303 297 287 278 265 258 250 246 241 235 229 230 227 226 220 218 216 217 219 219 219 221 224 226 221 215 201 192 192 189 195 196 196 169 205 217 194 213 221 222 222 221
308 305 297 290 280 270 261 253 249 243 236 227 223 216 215 213 213 211 213 216 219 223 221 223 225 229 220 211 194 194 198 195 194 201 212 238 173 186 191 221 221 221 222
311 304 294 289 284 272 263 258 250 241 235 226 220 219 215 216 214 214 215 218 220 220 219 220 222 226 228 220 200 198 201 205 198 198 202 206 216 246 249 223 210 216 220
308 303 293 287 279 269 262 255 247 239 229 224 219 219 217 214 211 209 214 213 214 216 219 218 222 221 228 219 203 202 205 205 207 202 202 204 200 208 194 224 215 210 212
314 305 301 294 286 276 276 264 249 242 231 218 218 217 218 214 211 212 210 209 208 212 214 217 218 221 218 226 215 208 207 206 206 204 202 203 206 219 219 214 210 191 188
324 320 312 297 301 308 296 273 253 245 231 218 211 217 215 215 217 217 214 211 210 210 210 214 221 224 224 223 228 227 216 211 208 212 208 204 209 212 214 210 207 197 203
330 327 321 308 305 305 294 277 252 239 226 218 209 209 214 214 216 222 221 220 217 213 213 215 219 224 230 228 213 203 204 204 205 207 208 199 207 217 214 218 215 215 218
340 339 338 325 320 318 310 287 244 232 229 223 215 212 204 210 215 217 220 221 219 218 217 218 222 228 233 233 224 217 198 201 206 204 204 202 206 214 216 216 226 235 234
348 350 357 359 345 338 325 303 266 230 221 224 222 216 211 207 214 215 216 218 219 215 217 221 224 228 230 228 230 225 211 202 206 204 205 210 209 211 211 213 221 234 230
357 359 1 5 6 348 330 317 286 254 227 217 210 216 215 212 219 218 215 214 216 218 221 226 231 232 229 227 229 231 220 212 210 208 208 210 208 211 210 215 213 224 230
0 3 6 6 5 6 15 11 355 291 230 209 210 212 216 215 218 221 221 220 221 225 226 228 225 228 228 236 232 229 225 215 217 219 212 211 206 207 208 216 217 220 230
2 2 3 4 7 8 13 14 9 9 7 314 259 251 248 235 229 223 221 220 223 228 230 233 232 228 226 228 233 232 230 226 218 215 213 214 211 212 209 214 220 216 221
359 360 0 1 2 5 8 13 16 20 22 38 35 16 344 302 247 236 230 233 237 238 241 242 237 232 232 231 231 232 224 224 225 224 223 218 219 216 216 213 218 212 217
357 358 356 359 3 3 3 7 14 16 18 31 28 12 357 344 273 224 229 231 236 238 235 228 231 236 238 239 226 224 225 223 222 220 220 219 215 216 215 214 216 210 211
354 357 357 358 3 4 1 7 10 11 20 25 19 14 13 23 46 87 90 73 66 70 39 359 200 73 3 215 207 196 198 198 221 222 213 211 205 206 210 219 221 221 218
350 354 355 355 358 4 11 8 15 20 22 22 15 14 19 32 45 62 64 69 62 61 58 48 61 64 40 54 172 192 194 192 200 191 193 203 203 200 211 220 230 230 225
346 349 355 356 357 3 1 13 18 20 23 23 20 17 19 29 35 48 49 56 63 65 54 53 51 57 46 40 50 66 66 65 58 54 51 51 48 29 18 260 232 226 226
352 352 354 354 2 4 1 11 17 19 22 22 24 21 24 31 35 35 40 45 52 63 60 57 51 51 50 40 44 49 50 53 52 48 44 41 31 17 11 354 314 285 265
346 352 4 7 1 360 7 18 17 19 13 17 27 31 31 37 40 45 42 47 51 56 55 57 54 53 46 40 42 41 40 33 39 38 29 22 6 357 360 347 326 305 303
324 350 6 6 8 12 13 19 22 11 15 20 24 26 31 35 38 44 46 49 51 55 53 53 52 46 42 38 35 35 36 23 31 23 7 350 340 346 344 340 331 324 314
292 326 352 356 6 13 17 17 9 9 17 31 35 34 33 32 33 39 40 39 42 46 43 44 44 39 32 28 27 28 27 25 21 3 349 352 352 350 342 344 340 339 322
244 272 317 337 352 4 13 12 9 7 18 27 29 30 34 40 41 45 48 46 41 43 43 42 40 39 34 24 17 12 11 14 8 354 4 359 356 352 341 341 340 340 334
209 207 242 285 336 357 10 9 6 3 9 21 23 24 26 31 32 45 42 47 49 46 48 41 42 33 27 19 16 17 18 13 5 7 13 10 5 356 350 341 335 325 317
209 207 207 200 191 23 2 356 355 351 353 15 23 28 30 29 32 34 48 52 49 45 49 43 39 30 24 18 16 13 17 16 17 29 17 7 360 353 343 336 328 323 319